Search for airport 
image banner adimage banner adimage banner ad
image banner ad

SIXD - Fazenda da Paz Airport

Located in Santana Do Livramento, Brazil

ICAO - SIXD, IATA -

Data provided by Airmate  

General information

Coordinates: S30°50'40" W55°34'5"
Elevation is 2267 feet MSL.
Magnetic variation is -13° East
View others Airports in Rio Grande do Sul

Operational data

Special qualification required
Current time UTC:
Current local time:
TAF: TAF SURV 242330Z 2500/2524 03010KT CAVOK TX23/2518Z TN12/2510Z TEMPO 2506/2512 3000 TSRA BKN010 FEW040CB OVC060
View NOTAMs / SUP AIP / TFR affecting this airport [VIEW]
Communications frequencies: [VIEW]

Runways:

RWY identifierQFULength (ft)Width (ft)SurfaceLDA (ft)
11252675GRASS
29252675GRASS

Airport contact information

Address: Santana Do Livramento Brazil

Satellite view of SIXD